www.pogodaiklimat.ru

Погода и климат >> Архив погоды >> Алжир >> Бени-Саф


ПОГОДА в Бени-Сафе

  • Прогноз погоды в Бени-Сафе
  • Монитор погоды в Бени-Сафе

АРХИВ ПОГОДЫ в Бени-Сафе

Время (UTC), дата Ветер
(напр.,м/с)
 
Видим.   Явления Облачность Т
(С)
Тd
(С)
f
(%)
Тe
(С)
Тes
(С)
Комфортность P
(гПа)
Po
(гПа)
Тmin
(С)
Tmax
(С)
R
(мм)
R24
(мм)
S
(см)
15 15.08 С 3 10 км 1/1 300 м
[St]
+28.9 +23.9 74 +40 +48 очень
душно
1012.5 1004.5
18 15.08 СЗ 5 15 км ясно +28.9 +21.7 65 +37 +37 очень
душно
1011.8 1003.8 +30.0
06 16.08 штиль 0 15 км 5/5 300 м
[Frnb]
+24.1 +22.3 90 +31 +32 очень
душно
1013.9 1005.8 +24.0
09 16.08 штиль 0 15 км 3/3 300 м
[St]
+27.3 +23.8 81 +37 +47 очень
душно
1014.2 1006.2
12 16.08 СВ 4 10 км 4/4 300 м
[St]
+27.9 +23.6 77 +38 +45 очень
душно
1013.9 1005.9
15 16.08 С 4 10 км 5/5 300 м
[St]
+29.6 +24.5 74 +42 +45 опасность
перегрева
1012.5 1004.5
18 16.08 С 3 10 км 1/1 300 м
[St]
+28.2 +23.8 77 +39 +39 очень
душно
1011.5 1003.5 +29.9
06 17.08 штиль 0 10 км 9/9 300 м
[St]
+23.9 +22.2 90 +31 +31 очень
душно
1012.8 1004.7 +23.6
09 17.08 С 2 10 км 4/4 300 м
[St]
+27.2 +22.9 77 +36 +42 очень
душно
1013.0 1005.0
12 17.08 С 4 10 км ясно +28.9 +23.8 74 +40 +52 опасность
солнечного
удара
1011.9 1003.9
15 17.08 С 3 10 км 3/3 300 м
[St]
+29.9 +24.7 74 +43 +49 опасность
перегрева
1010.3 1002.4
18 17.08 штиль 0 10 км 5/5 300 м
[St]
+27.8 +24.1 80 +39 +39 очень
душно
1009.2 1001.2 +30.4
06 18.08 штиль 0 10 км 9/9 300 м
[St]
+24.9 +22.2 85 +32 +32 очень
душно
1009.2 1001.1 +24.7
09 18.08 С 4 10 км 4/3 300 м
[St Ac trans]
+28.1 +23.7 77 +39 +43 очень
душно
1010.2 1002.2
12 18.08 С 5 10 км 5/5 300 м
[St Ac trans]
+30.1 +24.1 70 +42 +47 опасность
перегрева
1011.0 1003.1
15 18.08 С 5 10 км 6/5 300 м
[St Ac trans]
+30.2 +24.2 70 +42 +44 опасность
перегрева
1010.4 1002.5
18 18.08 С 3 10 км 3/3 300 м
[St]
+27.6 +23.5 78 +37 +38 очень
душно
1009.7 1001.7 +30.8
06 19.08 штиль 0 15 км ясно +26.3 +17.1 57 +30 +30 душно 1010.7 1002.7 +25.1
09 19.08 штиль 0 15 км ясно +32.3 +15.3 36 +35 +48 очень
душно
1011.6 1003.7
12 19.08 С 1 15 км ясно +32.2 +19.9 48 +38 +60 опасность
солнечного
удара
1012.0 1004.1
15 19.08 штиль 0 15 км ясно +31.3 +21.3 55 +39 +53 опасность
солнечного
удара
1010.6 1002.7
18 19.08 штиль 0 15 км ясно +29.2 +21.9 65 +38 +38 очень
душно
1009.7 1001.7 +33.1
06 20.08 штиль 0 10 км ясно +25.1 +15.5 55 +28 +28 жарко 1011.6 1003.5 +24.5
09 20.08 С 3 20 км ясно +28.7 +21.8 66 +37 +45 очень
душно
1012.7 1004.7
12 20.08 С 5 15 км 1/1 600 м
[Cu hum]
+30.8 +22.2 60 +40 +48 очень
душно
1012.9 1005.0
15 20.08 СЗ 3 15 км ясно +30.3 +20.6 56 +37 +46 очень
душно
1012.1 1004.2
18 20.08 СВ 2 15 км ясно +28.1 +21.5 67 +36 +36 очень
душно
1011.7 1003.7 +30.8
06 21.08 штиль 0 10 км 6/6 300 м
[St]
+24.1 +21.4 85 +31 +31 очень
душно
1013.1 1005.0 +24.0
09 21.08 штиль 0 10 км 4/4 300 м
[St]
+28.2 +23.6 76 +38 +46 очень
душно
1013.2 1005.2
12 21.08 СВ 6 10 км ясно +28.4 +24.3 78 +40 +47 очень
душно
1012.2 1004.2
15 21.08 СВ 10 10 км 1/1 300 м
[St]
+27.6 +24.2 82 +39 +39 очень
душно
1011.2 1003.2
18 21.08 СВ 9 10 км 3/1 800 м
[Sc Ac trans]
+26.3 +23.6 85 +36 +36 очень
душно
1011.7 1003.6 +29.7
06 22.08 штиль 0 10 км 8/4 300 м
[St Ac As]
+24.6 +22.3 87 +32 +32 очень
душно
1014.4 1006.3 +24.4
09 22.08 штиль 0 10 км 8/5 300 м
[St Ac As]
+26.6 +22.7 79 +35 +39 очень
душно
1015.0 1006.9

 

Местоположение метеостанции Бени-Саф (Алжир): широта 35.30 долгота -1.35 высота над уровнем моря 70 м.

В архиве по умолчанию представлена погода в Бени-Сафе за последнюю неделю. Архивные данные за месяц целиком и за предыдущие месяцы, начиная с января 2011 года, Вы можете получить, выбрав интересующий диапазон дат из раскрывающегося списка и нажав кнопку "Ввод!".


*Определитесь, кто Вы:
робот инопланетянин человек

Внимание! Время в таблицах - всемирное. Для получения местного времени необходимо прибавить поправку, которая равна 1 ч.

Смотрите также архив погоды в соседних городах и на ближайших метеорологических станциях:

Погода в Аэропорту Messali El Hadj (Алжир) (33 км)
Погода в Газауэте (Алжир) (52 км)
Погода в Багнии (Алжир) (66 км)
Погода в Сиди-Бель-Аббесе (Алжир) (67 км)
Погода в Оран аэропорту (Алжир) (77 км)
Погода в Оране (Алжир) (77 км)
Погода в Оран-Тафрауи (Алжир) (78 км)
Погода в Уджде (Марокко) (78 км)
Погода в Арзеве (Алжир) (114 км)
Погода в Грисе (Алжир) (137 км)

Пояснения к столбцам:

Ветер - указаны скорость ветра в м/с - средняя за 10 мин, порывы в срок и между сроками (в фигурных скобках) и направление, откуда дует ветер: С - северный, СВ - северо-восточный, В - восточный, ЮВ - юго-восточный, Ю - южный, ЮЗ - юго-западный, З - западный, СЗ - северо-западный.
Видимость - горизонтальная дальность видимости в метрах или километрах. При видимости от 1 до 10 км при отсутствии осадков обычно наблюдается дымка, при ухудшении видимости до 1 км и менее - туман. В сухую погоду видимость может ухудшаться дымом, пылью или мглою.
Явления - указаны атмосферные явления, наблюдавшиеся в срок или в последний час перед сроком; фигурными скобками обозначены явления, наблюдавшиеся между сроками (за 1-3 часа до срока); квадратными скобками обозначены град или гололедные отложения с указанием их диаметра в мм.
Облачность - указаны через наклонную черту общая и нижняя облачность в баллах и высота нижней границы облаков в метрах; квадратными скобками обозначены формы облаков: Ci - перистые, Cs - перисто-слоистые, Cc - перисто-кучевые, Ac - высококучевые, As - высокослоистые, Sc - слоисто-кучевые, Ns - слоисто-дождевые, Cu - кучевые, Cb - кучево-дождевые. Подробнее классификацию облаков см. в Атласе облаков (PDF).
T - Температура воздуха - температура, измеренная на высоте 2 м над землей.
Td - Температура точки росы - температура, при понижении до которой содержащийся в воздухе водяной пар достигнет насыщения.
f - Относительная влажность воздуха - влажноcть воздуха, измеренная на высоте 2 м над землей.
Te - Эффективная температура - температура, которую ощущает одетый по сезону человек в тени. Характеристика душности погоды. При расчете учитывается влияние влажности воздуха и скорости ветра на теплоощущения человека.
Tes - Эффективная температура на солнце - температура, которую ощущает человек, с поправкой на солнечный нагрев. Характеристика знойности погоды. Зависит от высоты солнца над горизонтом, облачности и скорости ветра. Ночью, в пасмурную погоду, а также при ветре 12 м/с и более поправка равна нулю.
P - Атмосферное давление - приведенное к уровню моря атмосферное давление.
Po - Атмосферное давление - измеренное на уровне метеостанции атмосферное давление.
Tmin - Минимальная температура - минимум температуры воздуха на высоте 2 м над землей.
Tmax - Максимальная температура - максимум температуры воздуха на высоте 2 м над землей.
R - Количество осадков - Количество выпавших осадков за период времени, мм. При наведении курсора мыши на число - период времени, за который выпало указанное количество осадков.
R24 - Количество осадков - Количество выпавших осадков за 24 часа, мм.
S - Снежный покров - Высота снежного покрова, см. При наведении курсора мыши на число - состояние снежного покрова и степень покрытия местности в баллах.